天启-24星 (TIANQI-24)

导读 | 星芒AI

TIANQI-24 是中国最新一代气象卫星,主要用于气象监测和空间环境探测。该卫星具备高分辨率成像和实时数据传输能力,可提供更精准的天气预报和气候分析。其先进传感器可监测大气温度、湿度及云层变化,提升灾害性天气预警水平。TIANQI-24 的发射进一步完善了中国气象卫星体系,对防灾减灾、生态环境保护和航空航天安全具有重要意义。

基本信息
目录编号:
57795
目录名称:
TIANQI 24
国际标识:
2023-135D
轨道中心:
EARTH
卫星名称:
天启-24星
卫星全名:
天启-24星 (TIANQI-24)
卫星状态:
在轨 (已飞行832 天)
发射日期:
2023-09-05 UTC
国别 :
中国 (CN)
星等 :
--
轨道信息
数据来源 国际轨道数据 AOE轨道数据
星历时间 2025-12-15T05:40:15+0800
21小时前
查看轨道信息
2025-12-09T22:00:00+0800
6天前
查看轨道信息
半长轴 7193.282km 7193.289km
偏心率 0.0013788 0.001416
轨道倾角 49.972° 49.969°
近地点辐角 340.078° 318.575°
升交点赤经 208.112° 230.491°
平近点角 19.959° 131.135°
近地点 805.228km 804.968km
远地点 825.066km 825.34km
周期 101.193分钟 101.193分钟
每日圈数 14.230239 14.230218
详细信息
平衡模式:
三轴稳定
覆盖范围:
全球
运营商:
北京国电高科科技有限公司
运营商所在国:
中国
制造商(研发单位):
北京国电高科科技有限公司
制造商所在国:
中国
使用方式:
暂无
卫星简介
天启星座(Tianqi)由38颗卫星组网而成,提供全球短数据采集。致力于为全球物联网相关行业用户提供覆盖全球、准实时的物联网卫星数据服务,真正实现空中、海洋和地面的万物互联,构建天地一体化的卫星物联网生态系统,全面解决海上、空中以及陆地网络盲区(我国有70%以上陆地没有网络覆盖)的物联网数据通信问题。该卫星仍在工作。
2D轨道图
3D轨道图
轨道高度分析图
轨道倾角分析图
轨道综合分析图
查看轨道综合分析图